[[{"header":{"parameterUnit":"m.s-1","parameterCategory":1,"la1":30.2991,"la2":30.254,"lo1":-89.0895,"lo2":-89.0444,"dy":0.0017,"dx":0.0017,"nx":28,"ny":28,"refTime":"2025-08-19T09:00:00:Z","depth":0,"parameterNumber":2,"parameterNumberName":"U-component_of_WINDS"},"data":[0,0,0,0,0,0,0,0,0,0,0,0,0,0,0,0,0,0,0,0,0,0,0,0,0,0,0,0,0,0,0,0,0,0,0,0,0,0,0,0,0,0,0,0,0,0,0,0,0,0,0,0,0,0,0,0,0,0,-0.6183,-0.6183,0,-0.6193,-0.6194,-0.6194,-0.6264,-0.6266,-0.6267,-0.6269,-0.6276,-0.6275,-0.6274,0,0,0,0,0,0,0,0,0,0,0,0,0,-0.6221,-0.622,-0.6183,-0.6183,-0.6183,-0.6193,-0.6194,-0.6194,-0.6264,-0.6266,-0.6268,-0.627,-0.6277,-0.6275,-0.6273,0,0,0,0,0,0,0,0,0,0,0,0,0,-0.6215,-0.6219,-0.6183,-0.622,-0.6223,-0.6193,-0.6194,-0.6194,-0.6263,-0.6266,-0.6268,-0.6271,-0.6277,-0.6275,-0.6273,-0.6208,0,0,-0.6267,-0.6266,0,0,0,0,0,0,0,0,-0.6215,-0.6213,-0.6214,-0.6217,-0.6221,-0.623,-0.621,-0.6198,-0.6263,-0.6248,-0.6269,-0.6272,-0.6259,-0.6258,-0.6254,-0.6209,-0.6209,-0.6266,-0.6265,-0.6264,-0.6264,0,0,0,0,0,0,0,-0.6215,-0.6213,-0.6187,-0.6214,-0.6218,-0.6234,-0.6236,-0.6208,-0.6238,-0.6249,-0.6255,-0.6255,-0.6261,-0.6256,-0.6255,-0.6209,-0.6267,-0.6265,-0.6263,-0.6263,-0.611,-0.6107,0,0,0,0,0,0,-0.6211,-0.6213,-0.6187,-0.6187,-0.6224,-0.6232,-0.6234,-0.6224,-0.6239,-0.6244,-0.6253,-0.6258,-0.6259,-0.6257,-0.6256,-0.618,-0.6264,-0.6262,-0.6261,-0.6112,-0.6109,-0.6106,0,0,0,0,0,0,-0.6212,-0.6208,-0.6186,-0.6202,-0.62,-0.6228,-0.6217,-0.6223,-0.6219,-0.6242,-0.6247,-0.6242,-0.6261,-0.6259,-0.622,-0.6181,-0.6261,-0.6259,-0.6116,-0.6111,-0.6107,-0.6029,0,0,0,0,0,0,-0.6213,-0.6208,-0.6184,-0.6201,-0.6199,-0.6151,-0.6215,-0.6222,-0.6215,-0.6222,-0.6233,-0.6238,-0.6262,-0.6222,-0.6217,-0.618,-0.6258,-0.6119,-0.6114,-0.6109,-0.6035,-0.6022,-0.6011,0,0,0,0,0,-0.6214,-0.6161,-0.6183,-0.6179,-0.617,-0.6149,-0.6148,-0.6178,-0.6212,-0.6188,-0.6202,-0.6237,-0.6186,-0.6218,-0.6213,-0.6174,-0.6122,-0.6115,-0.6109,-0.604,-0.6025,-0.6012,0,0,0,0,0,0,-0.6139,-0.6164,-0.6188,-0.614,-0.6142,-0.6161,-0.6131,-0.6161,-0.6152,-0.6159,-0.6197,-0.6198,-0.6154,-0.616,-0.6195,-0.6112,-0.616,-0.6152,-0.6109,-0.6095,-0.6083,-0.6082,-0.6256,0,0,0,0,0,-0.6117,-0.6098,-0.6121,-0.6076,-0.6075,-0.6103,-0.6094,-0.6118,-0.6121,-0.6122,-0.6134,-0.6134,-0.6118,-0.6107,-0.6094,-0.6036,-0.6039,-0.6007,-0.5995,-0.5986,-0.5978,-0.5948,-0.5933,-0.6085,-0.6085,-0.6086,0,0,-0.607,-0.6082,-0.6068,-0.6061,-0.6065,-0.6043,-0.6103,-0.6078,-0.6062,-0.6118,-0.6082,-0.609,-0.6093,-0.6044,-0.6024,-0.6048,-0.5937,-0.5978,-0.597,-0.5968,-0.594,-0.5925,-0.5913,-0.6081,-0.6082,-0.6083,0,0,-0.5976,-0.5983,-0.5946,-0.5949,-0.5955,-0.5974,-0.5964,-0.5979,-0.5987,-0.5952,-0.5993,-0.5974,-0.5946,-0.5946,-0.5943,-0.5847,-0.5879,-0.5842,-0.5781,-0.5751,-0.5739,-0.5728,-0.5694,-0.5681,-0.5835,-0.5835,-0.5834,0,-0.5917,-0.5888,-0.5923,-0.5895,-0.589,-0.5941,-0.5903,-0.5904,-0.5904,-0.5899,-0.5927,-0.5893,-0.5899,-0.585,-0.5827,-0.5823,-0.5813,-0.5841,-0.5738,-0.5728,-0.5718,-0.5686,-0.5673,-0.583,-0.5831,-0.5831,-0.5831,0,-0.5815,-0.5794,-0.5763,-0.5764,-0.5756,-0.5723,-0.5752,-0.5739,-0.5763,-0.5778,-0.5741,-0.5749,-0.5739,-0.5729,-0.5752,-0.5683,-0.5699,-0.5732,-0.5781,-0.5699,-0.5669,-0.5656,-0.5823,-0.5825,-0.5827,-0.5828,0,0,-0.5673,-0.5694,-0.5682,-0.5682,-0.5692,-0.5676,-0.5645,-0.5635,-0.5623,-0.5622,-0.5596,-0.5571,-0.5602,-0.5598,-0.5621,-0.5594,-0.5517,-0.5631,-0.5631,-0.5609,-0.5442,-0.5416,-0.5401,-0.5538,-0.5536,-0.5534,-0.5441,0,-0.5582,-0.5531,-0.5562,-0.5506,-0.5486,-0.5533,-0.5506,-0.5509,-0.5522,-0.5506,-0.5521,-0.5502,-0.5544,-0.5542,-0.5518,-0.5532,-0.5484,-0.5539,-0.5514,-0.5512,-0.5511,-0.5386,-0.5359,-0.5271,-0.543,-0.5428,-0.5426,0,-0.5468,-0.5463,-0.5405,-0.5419,-0.5412,-0.5387,-0.538,-0.5365,-0.5369,-0.538,-0.5375,-0.5405,-0.5374,-0.5423,-0.5381,-0.5418,-0.5409,-0.5414,-0.5411,-0.541,-0.5464,-0.538,-0.5243,-0.523,-0.5408,-0.541,-0.5411,0,-0.537,-0.5348,-0.5311,-0.531,-0.5325,-0.5306,-0.5311,-0.5317,-0.5309,-0.5303,-0.5298,-0.5288,-0.5282,-0.5273,-0.5298,-0.5332,-0.5252,-0.5304,-0.526,-0.5259,-0.524,-0.5241,-0.51,-0.5236,-0.5236,-0.5236,-0.5236,0,-0.5264,-0.5227,-0.5267,-0.5243,-0.5203,-0.5238,-0.5196,-0.5206,-0.5211,-0.519,-0.523,-0.5209,-0.5244,-0.5226,-0.5246,-0.5208,-0.5205,-0.5212,-0.5218,-0.5208,-0.5207,-0.5203,-0.5209,-0.5233,-0.5233,-0.5234,-0.5235,0,-0.5146,-0.5172,-0.5134,-0.5152,-0.5155,-0.5124,-0.5139,-0.5118,-0.5134,-0.5106,-0.5102,-0.5127,-0.5108,-0.5133,-0.5116,-0.5129,-0.5076,-0.5091,-0.5075,-0.5079,-0.5034,-0.5037,-0.4884,-0.4865,-0.5014,-0.5012,-0.5011,0,-0.5077,-0.505,-0.5064,-0.5054,-0.5057,-0.5039,-0.5031,-0.5064,-0.5054,-0.5056,-0.5034,-0.5019,-0.5008,-0.4975,-0.4991,-0.4978,-0.4993,-0.494,-0.4991,-0.4982,-0.4991,-0.4992,-0.4989,-0.4929,-0.4928,-0.4926,-0.4925,0,-0.4951,-0.4965,-0.4953,-0.4945,-0.4935,-0.493,-0.4928,-0.4916,-0.495,-0.4937,-0.4919,-0.4911,-0.4894,-0.4878,-0.4869,-0.4873,-0.4904,-0.4909,-0.4898,-0.4888,-0.4879,-0.4882,-0.5046,-0.4912,-0.4913,-0.4914,-0.4915,-0.4916,-0.4855,-0.4833,-0.484,-0.4825,-0.4827,-0.4824,-0.4805,-0.4818,-0.4804,-0.4794,-0.4814,-0.479,-0.4793,-0.4785,-0.4786,-0.4767,-0.479,-0.4774,-0.477,-0.4766,-0.4758,-0.4883,-0.4766,-0.4766,-0.4767,-0.4767,-0.4767,0,-0.473,-0.4737,-0.4723,-0.4719,-0.4707,-0.4739,-0.4738,-0.4725,-0.4704,-0.4705,-0.4694,-0.4673,-0.4657,-0.4672,-0.4659,-0.4641,-0.4655,-0.4636,-0.4638,-0.4638,-0.4739,-0.475,-0.4626,-0.4626,-0.4626,-0.4626,-0.4626,-0.4626,-0.4664,-0.4628,-0.4642,-0.4607,-0.4614,-0.4592,-0.4589,-0.4586,-0.4587,-0.4561,-0.4549,-0.4559,-0.4565,-0.4553,-0.454,-0.4544,-0.4537,-0.4514,-0.4523,-0.4617,-0.4631,-0.4644,-0.4654,-0.4512,-0.4512,-0.4423,-0.4423,-0.4422]},{"header":{"parameterUnit":"m.s-1","parameterCategory":1,"la1":30.2991,"la2":30.254,"lo1":-89.0895,"lo2":-89.0444,"dy":0.0017,"dx":0.0017,"nx":28,"ny":28,"refTime":"2025-08-19T09:00:00:Z","depth":0,"parameterNumber":3,"parameterNumberName":"V-component_of_WINDS"},"data":[0,0,0,0,0,0,0,0,0,0,0,0,0,0,0,0,0,0,0,0,0,0,0,0,0,0,0,0,0,0,0,0,0,0,0,0,0,0,0,0,0,0,0,0,0,0,0,0,0,0,0,0,0,0,0,0,0,0,-1.3744,-1.3743,0,-1.3704,-1.3704,-1.3703,-1.3728,-1.3729,-1.373,-1.3732,-1.3687,-1.3684,-1.3682,0,0,0,0,0,0,0,0,0,0,0,0,0,-1.384,-1.3838,-1.3744,-1.3743,-1.3743,-1.3704,-1.3704,-1.3703,-1.3728,-1.3729,-1.3731,-1.3732,-1.3687,-1.3685,-1.3682,0,0,0,0,0,0,0,0,0,0,0,0,0,-1.3799,-1.3837,-1.3744,-1.3751,-1.3751,-1.3704,-1.3704,-1.3703,-1.3728,-1.3729,-1.3731,-1.3733,-1.3688,-1.3685,-1.3682,-1.3625,0,0,-1.3671,-1.367,0,0,0,0,0,0,0,0,-1.3801,-1.3795,-1.375,-1.375,-1.375,-1.3723,-1.3721,-1.3677,-1.3727,-1.3736,-1.3732,-1.3734,-1.3697,-1.3693,-1.3682,-1.3623,-1.3621,-1.3671,-1.3669,-1.3667,-1.3666,0,0,0,0,0,0,0,-1.3804,-1.3797,-1.3728,-1.3749,-1.3749,-1.3755,-1.3752,-1.3713,-1.3707,-1.3736,-1.3737,-1.3733,-1.3697,-1.3685,-1.3681,-1.362,-1.3671,-1.3668,-1.3666,-1.3664,-1.3519,-1.3517,0,0,0,0,0,0,-1.3807,-1.3799,-1.3729,-1.3727,-1.3781,-1.3752,-1.3748,-1.373,-1.3708,-1.3706,-1.3731,-1.3734,-1.369,-1.3685,-1.3679,-1.3615,-1.3667,-1.3664,-1.3662,-1.352,-1.3518,-1.3516,0,0,0,0,0,0,-1.3809,-1.38,-1.3731,-1.3764,-1.3755,-1.3749,-1.3728,-1.3728,-1.3716,-1.3704,-1.3703,-1.3719,-1.3691,-1.3684,-1.364,-1.3614,-1.3662,-1.3659,-1.3523,-1.352,-1.3517,-1.3484,0,0,0,0,0,0,-1.3811,-1.3801,-1.3779,-1.3763,-1.3753,-1.3692,-1.3727,-1.3726,-1.371,-1.3713,-1.3693,-1.3691,-1.3692,-1.3645,-1.3636,-1.361,-1.3657,-1.3525,-1.3521,-1.3518,-1.3488,-1.3481,-1.3475,0,0,0,0,0,-1.3815,-1.3769,-1.3778,-1.3769,-1.3726,-1.369,-1.3685,-1.3688,-1.3708,-1.3686,-1.368,-1.3692,-1.3618,-1.364,-1.3631,-1.3603,-1.3527,-1.3522,-1.3518,-1.3491,-1.3482,-1.3475,0,0,0,0,0,0,-1.3779,-1.3767,-1.3776,-1.3724,-1.3709,-1.3695,-1.3667,-1.3678,-1.3655,-1.3659,-1.3662,-1.3657,-1.3612,-1.3603,-1.3628,-1.355,-1.3575,-1.3569,-1.3557,-1.3549,-1.3543,-1.3547,-1.3654,0,0,0,0,0,-1.3766,-1.3738,-1.3729,-1.3684,-1.3676,-1.3673,-1.3657,-1.3662,-1.3645,-1.3638,-1.3628,-1.361,-1.3584,-1.3566,-1.354,-1.3487,-1.3484,-1.3463,-1.3457,-1.3452,-1.3447,-1.3422,-1.3414,-1.3503,-1.3503,-1.3503,0,0,-1.3736,-1.3727,-1.3708,-1.3677,-1.3665,-1.3638,-1.3667,-1.3635,-1.3615,-1.3632,-1.3592,-1.3584,-1.3565,-1.3517,-1.3495,-1.3508,-1.3422,-1.3446,-1.3442,-1.344,-1.3417,-1.3408,-1.3401,-1.35,-1.3501,-1.3501,0,0,-1.367,-1.3659,-1.3623,-1.3612,-1.3595,-1.3594,-1.3586,-1.3571,-1.3568,-1.3528,-1.3542,-1.3517,-1.347,-1.3458,-1.3445,-1.338,-1.3391,-1.3371,-1.3338,-1.3314,-1.3307,-1.3301,-1.328,-1.3273,-1.3366,-1.3366,-1.3366,0,-1.3636,-1.3595,-1.3602,-1.3571,-1.3558,-1.3576,-1.354,-1.3528,-1.3503,-1.3494,-1.3509,-1.3454,-1.3442,-1.3394,-1.3379,-1.3366,-1.3358,-1.3373,-1.3307,-1.3301,-1.3296,-1.3277,-1.3269,-1.3364,-1.3364,-1.3364,-1.3364,0,-1.3556,-1.3528,-1.3501,-1.348,-1.3464,-1.343,-1.3432,-1.3415,-1.3422,-1.342,-1.338,-1.3367,-1.3342,-1.3331,-1.3335,-1.3284,-1.3293,-1.3307,-1.3334,-1.3285,-1.3267,-1.326,-1.3361,-1.3361,-1.3362,-1.3363,0,0,-1.3463,-1.3451,-1.3441,-1.3434,-1.3419,-1.3398,-1.3366,-1.3344,-1.3331,-1.3313,-1.3289,-1.3251,-1.3266,-1.3252,-1.3255,-1.3234,-1.3188,-1.3252,-1.3252,-1.3243,-1.3135,-1.3126,-1.3117,-1.3196,-1.3194,-1.3193,-1.3138,0,-1.3399,-1.3346,-1.3354,-1.3303,-1.3279,-1.3298,-1.3271,-1.326,-1.3258,-1.3237,-1.3235,-1.321,-1.323,-1.3222,-1.3202,-1.3198,-1.3167,-1.3202,-1.3174,-1.3172,-1.318,-1.3107,-1.3096,-1.3045,-1.3131,-1.3129,-1.3129,0,-1.3316,-1.33,-1.3248,-1.3242,-1.3232,-1.3208,-1.3191,-1.3171,-1.3159,-1.3159,-1.3146,-1.3155,-1.3125,-1.3152,-1.3112,-1.3136,-1.3125,-1.3122,-1.312,-1.3118,-1.3148,-1.3106,-1.3028,-1.3021,-1.3117,-1.3118,-1.3119,0,-1.3258,-1.3223,-1.3189,-1.3182,-1.3173,-1.3156,-1.3151,-1.3142,-1.3129,-1.3114,-1.3107,-1.3086,-1.3076,-1.3061,-1.3065,-1.3083,-1.3025,-1.3051,-1.3026,-1.3026,-1.3013,-1.3014,-1.2934,-1.3003,-1.3003,-1.3003,-1.3003,0,-1.3186,-1.3154,-1.3164,-1.3143,-1.3109,-1.3118,-1.3084,-1.3081,-1.3073,-1.3053,-1.3067,-1.3047,-1.3053,-1.3034,-1.3036,-1.3005,-1.2999,-1.3,-1.3001,-1.2999,-1.3,-1.2993,-1.2997,-1.3001,-1.3001,-1.3002,-1.3002,0,-1.3115,-1.312,-1.3085,-1.3081,-1.308,-1.3055,-1.3052,-1.3032,-1.3034,-1.3008,-1.3002,-1.3003,-1.2982,-1.2985,-1.296,-1.2962,-1.2924,-1.2928,-1.2929,-1.293,-1.2906,-1.2909,-1.2821,-1.2811,-1.2884,-1.2883,-1.2882,0,-1.307,-1.3046,-1.3042,-1.3031,-1.3026,-1.3006,-1.2995,-1.3004,-1.2992,-1.298,-1.2963,-1.2944,-1.2929,-1.2894,-1.2893,-1.2875,-1.288,-1.2851,-1.2877,-1.2878,-1.2883,-1.2886,-1.2885,-1.2846,-1.2845,-1.2844,-1.2843,0,-1.299,-1.2995,-1.2979,-1.2966,-1.2953,-1.2942,-1.2932,-1.2922,-1.293,-1.2916,-1.2897,-1.2885,-1.2863,-1.2844,-1.2829,-1.2824,-1.2836,-1.2835,-1.2829,-1.2828,-1.283,-1.2832,-1.2917,-1.2837,-1.2838,-1.2838,-1.2839,-1.2839,-1.2932,-1.2914,-1.291,-1.2893,-1.2888,-1.288,-1.2863,-1.2864,-1.2849,-1.2833,-1.2839,-1.2817,-1.281,-1.279,-1.2784,-1.2767,-1.2778,-1.2768,-1.2766,-1.2764,-1.2763,-1.2832,-1.2764,-1.2764,-1.2764,-1.2765,-1.2765,0,-1.2856,-1.2855,-1.284,-1.2828,-1.2816,-1.2831,-1.2822,-1.281,-1.2792,-1.2785,-1.2772,-1.2751,-1.2734,-1.2733,-1.2718,-1.2705,-1.271,-1.2701,-1.2702,-1.2702,-1.2752,-1.2761,-1.2697,-1.2697,-1.2697,-1.2697,-1.2697,-1.2697,-1.2814,-1.2787,-1.2792,-1.2762,-1.2761,-1.2742,-1.2737,-1.273,-1.2725,-1.2702,-1.269,-1.269,-1.2686,-1.2672,-1.2658,-1.2658,-1.2653,-1.2641,-1.2644,-1.2691,-1.2698,-1.2704,-1.2712,-1.264,-1.2639,-1.2595,-1.2595,-1.2595]}]]